Location: Paderno d�Adda
(45.6667°N, 9.4333°E)
Time: 04:54:35
(UTC+00:00)

Cosmos 1125 Rocket - Pass Details

Date: 23 January 2021
Orbit: 757 x 781 km, 74.0° (Epoch: 05 March)

Event Time Altitude Azimuth Distance (km) Brightness Sun altitude
Exits shadow 04:04:43 - 359° (N) 2,714 6.3 -29.2°
Reaches altitude 10° 04:06:09 10° 9° (N) 2,337 6.1 -29.0°
Maximum altitude 04:09:36 17° 50° (NE) 1,884 6.0 -28.4°
Drops below altitude 10° 04:13:02 10° 91° (E) 2,334 7.0 -27.8°
Sets 04:16:15 0° 111° (ESE) 3,259 7.8 -27.2°
